Tracking 22456 objects as of 7-Mar-2021
HD Live streaming from Space Station
objects crossing your sky now

DMSP 5D-2 F6 DEB

Track DMSP 5D-2 F6 DEB now!
10-day predictions


NORAD ID: 40919
Int'l Code: 1982-118M
Perigee: 756.8 km
Apogee: 780.7 km
Inclination: 98.5 °
Period: 100.1 minutes
Semi major axis: 7139 km
RCS: Unknown
Launch date: December 21, 1982
Source: United States (US)
Launch site: AIR FORCE WESTERN TEST RANGE (AFWTR)

Note: This is SATELLITE DEBRIS
aabbcc
Your satellite tracking list
Your tracking list is empty




NASA's NSSDC Master Catalog

Two Line Element Set (TLE):
1 40919U 82118M   21065.35930670  .00001490  00000-0  49551-3 0  9991
2 40919  98.4997 262.7381 0016760  41.7993 318.4471 14.39066284251383
Source of the keplerian elements: AFSPC